Wind_Speed
49 49 49 49 49 49 49 49 49 48 46 45 45 44 44 43 42 40 39 39 38 37 36 35 35 35 35 34 32 29 27 26 25 25 25 25 24 23 22 22 23 23
49 48 47 47 47 46 46 45 45 44 44 44 43 43 43 42 40 39 38 38 38 37 36 36 36 36 36 34 32 30 28 26 25 25 25 25 24 24 24 25 25 25
47 46 45 44 43 42 42 41 41 40 40 39 39 40 40 39 39 38 37 37 37 37 37 36 35 35 34 33 31 29 28 27 26 24 24 25 26 27 28 28 28 28
44 42 40 39 39 38 39 39 39 39 38 37 37 38 38 38 38 38 37 37 37 37 36 34 33 32 31 29 28 27 27 26 25 25 26 29 30 31 31 31 30 30
42 41 40 39 38 38 39 39 38 38 37 37 36 37 37 37 37 36 36 36 36 35 34 32 30 29 28 27 26 27 27 27 28 30 33 34 34 33 33 33 33 32
40 40 40 39 38 38 37 37 36 36 36 36 37 36 37 37 37 37 37 37 38 37 36 34 32 31 31 30 31 31 32 34 35 36 36 36 36 36 36 36 35 33
37 37 37 37 37 35 34 35 35 36 37 37 38 38 39 39 39 39 39 38 39 38 37 36 35 34 34 34 35 36 37 37 37 37 38 39 39 39 39 38 36 34
35 35 34 34 35 35 36 38 38 38 38 39 39 39 39 40 40 39 38 38 37 37 37 37 37 37 37 37 37 38 38 39 40 41 42 42 41 40 40 39 38 36
36 36 35 35 36 38 39 40 39 39 39 39 39 40 40 40 40 39 39 38 38 38 38 38 39 39 39 38 38 39 39 41 42 43 42 42 41 42 42 40 39 37
37 37 36 36 38 38 38 38 37 37 37 37 38 38 39 39 40 39 39 39 38 38 39 39 40 40 40 40 40 40 41 42 43 43 43 43 43 43 42 40 38 37
37 37 36 36 36 35 34 33 34 34 35 35 36 38 38 38 39 39 39 39 39 39 40 40 41 41 42 42 42 43 43 43 43 42 42 43 43 42 40 39 37 37
37 36 35 35 34 33 32 32 34 35 35 36 38 39 39 38 38 39 39 40 41 42 42 42 42 44 44 44 45 45 44 43 43 42 42 42 41 40 39 39 39 40
36 34 32 32 31 31 33 33 35 37 37 38 38 39 38 38 37 39 41 42 43 44 44 44 46 46 46 46 46 45 44 43 41 40 39 39 39 39 40 42 43 45
34 34 32 31 31 33 35 36 37 38 38 38 39 39 39 39 40 42 44 45 45 46 46 47 48 47 46 46 46 45 43 42 40 38 38 39 40 41 43 46 49 50
35 35 34 33 34 35 37 37 37 38 39 40 41 41 41 42 43 45 46 47 48 49 49 48 48 47 47 46 45 43 41 40 40 41 42 43 45 47 50 53 54 55
37 36 36 37 38 40 40 39 39 39 40 42 43 44 45 46 48 50 51 52 53 53 52 50 48 47 45 43 41 39 39 40 42 44 47 49 51 54 56 58 59 59
41 40 40 41 42 43 43 42 41 42 43 44 46 49 51 52 53 54 54 53 52 51 49 47 46 44 42 41 40 40 42 44 46 50 52 55 57 59 60 60 61 62
47 47 46 47 48 47 47 46 47 48 50 52 53 54 55 55 55 54 53 51 49 47 45 44 43 43 42 42 42 44 46 50 53 56 59 60 61 62 62 62 63 64
51 52 52 52 53 52 52 52 52 53 54 55 55 55 54 53 52 51 50 50 50 50 49 47 46 46 46 47 49 52 55 58 60 61 62 63 64 64 64 65 66 67
57 56 55 55 55 55 55 55 54 54 54 55 55 56 55 54 53 52 51 52 52 53 53 52 52 52 54 55 58 60 62 63 64 64 64 65 66 67 67 69 70 71
62 61 61 59 58 57 58 57 57 57 57 57 58 58 58 58 58 58 58 58 58 59 59 59 59 60 61 62 64 66 67 69 70 70 71 71 71 72 73 74 75 75
65 65 65 64 63 62 62 62 61 61 61 61 62 62 62 63 63 63 64 65 66 67 67 66 66 67 67 68 69 71 72 74 75 76 77 78 78 78 79 79 79 78
70 69 69 68 68 67 67 67 67 67 67 67 67 68 68 69 69 69 70 70 71 72 73 72 72 72 73 74 75 76 77 78 80 81 81 81 82 83 83 82 81 80
73 73 73 73 72 71 71 71 71 71 71 71 72 72 73 73 73 73 73 74 75 76 77 77 78 78 79 80 80 81 82 83 84 84 85 84 85 86 86 84 83 82
75 75 75 76 76 76 76 77 77 77 77 77 76 76 76 76 76 76 76 77 78 79 80 81 82 83 83 84 85 86 87 88 88 88 88 88 88 88 87 85 83 82
76 76 77 78 79 80 80 81 82 82 82 82 81 81 80 80 80 80 81 81 82 82 83 84 86 86 87 88 89 89 90 90 91 90 90 90 90 89 87 85 83 82
Wind_Direction
268 268 268 269 270 271 271 272 272 273 273 274 276 278 280 282 283 285 286 285 286 286 287 290 291 292 293 293 292 291 290 290 291 291 292 295 298 301 303 305 305 305
270 269 269 269 270 270 270 271 271 272 273 274 277 279 281 282 284 284 284 284 285 286 287 289 291 291 291 290 290 289 288 287 287 287 288 291 293 296 300 303 305 304
270 269 268 268 268 268 269 270 271 272 274 276 278 279 281 282 283 284 283 283 284 285 286 288 289 289 289 289 288 287 286 284 284 284 284 287 291 295 299 302 304 303
267 264 262 263 264 266 268 269 271 274 276 278 279 280 281 282 283 283 283 282 283 284 285 287 287 287 288 288 286 284 282 281 281 282 285 288 292 295 298 300 302 302
260 258 258 259 263 266 269 272 274 276 277 277 278 278 278 278 279 280 280 280 282 283 284 284 283 283 285 284 282 281 280 280 281 283 287 290 292 295 298 300 301 301
258 258 259 262 266 269 272 275 276 277 277 276 276 275 274 273 274 275 276 277 279 281 281 280 279 279 280 280 280 280 279 280 282 284 288 291 294 296 297 299 300 300
262 262 261 262 264 267 270 274 275 275 275 275 273 272 271 271 271 273 275 277 279 280 280 279 278 278 278 279 279 279 279 280 283 286 290 293 294 296 297 299 300 299
262 262 261 261 262 265 269 272 273 274 274 273 272 271 271 271 272 274 276 277 278 279 279 279 279 279 279 279 279 279 280 282 284 288 291 294 295 296 296 297 298 298
257 256 257 261 264 267 270 272 273 273 273 273 273 274 274 275 276 277 278 279 280 280 280 281 282 281 281 281 280 280 281 283 286 289 291 292 293 294 295 296 296 295
254 255 258 262 264 266 269 271 272 271 271 273 274 275 277 279 280 281 283 283 283 282 282 283 283 283 284 284 283 284 285 286 288 289 290 290 292 293 294 294 293 291
251 256 260 262 261 263 265 265 264 264 265 268 269 271 274 276 279 281 283 283 283 284 285 285 285 287 288 288 288 288 288 288 288 287 287 289 291 292 292 291 290 288
251 256 260 262 262 262 261 257 255 256 257 260 264 267 271 274 278 280 281 283 284 285 287 287 288 289 290 290 290 290 290 289 288 288 287 288 290 289 288 288 288 289
255 259 261 261 257 255 254 252 251 252 253 257 261 265 270 274 277 279 280 281 282 283 284 285 287 288 289 290 290 291 291 290 289 287 285 284 285 285 286 288 290 291
252 253 253 253 249 247 248 250 252 254 257 259 260 263 266 269 272 275 276 278 279 281 283 285 287 287 288 290 291 291 292 291 290 288 285 284 283 284 286 289 292 292
246 246 244 244 245 245 245 247 252 257 261 263 264 264 265 267 271 274 276 278 280 283 284 285 286 287 288 290 290 290 291 291 290 288 288 288 286 286 287 289 291 291
245 246 244 244 246 248 248 251 256 260 263 266 268 269 269 271 274 277 278 280 282 283 283 284 286 288 289 290 289 287 287 288 287 287 287 288 287 288 288 288 289 290
248 247 247 249 252 254 255 257 258 259 261 264 267 269 272 274 276 278 279 280 281 281 282 285 286 287 288 288 286 284 284 285 285 285 286 286 287 288 288 288 287 288
252 252 251 252 254 257 258 259 260 261 263 265 268 270 273 276 277 278 279 279 278 277 278 281 282 282 283 283 282 282 282 283 283 284 285 286 286 286 286 286 286 286
251 254 255 256 257 259 260 260 261 263 265 267 269 270 272 274 276 276 275 274 274 273 274 274 274 275 276 277 278 279 281 283 284 285 285 285 285 285 285 285 285 286
248 252 254 257 259 260 261 262 262 262 263 265 266 267 269 270 270 270 270 270 270 271 271 271 271 271 272 274 276 278 281 284 285 286 286 286 286 285 285 286 286 285
249 251 253 255 257 258 260 262 263 264 264 265 266 267 268 269 269 269 268 268 269 270 270 271 271 271 272 273 275 278 281 284 286 288 288 288 288 288 288 288 287 287
250 252 254 255 256 258 259 260 261 262 263 264 265 265 267 268 269 269 269 269 270 271 272 272 272 272 273 274 276 279 281 284 286 287 289 289 290 290 291 290 289 289
252 253 254 255 257 259 260 261 262 262 263 263 264 265 266 266 267 269 270 271 271 272 273 273 274 274 275 276 277 279 281 283 285 287 288 289 290 291 291 290 290 290
253 254 256 257 258 259 261 262 263 263 264 265 265 266 267 268 268 269 270 271 272 272 273 274 274 275 276 277 278 279 281 282 284 286 287 288 289 290 290 290 289 289
254 255 257 258 259 260 261 262 263 264 265 266 267 267 268 269 270 271 271 272 273 273 274 274 275 276 276 277 278 279 280 281 283 285 286 287 288 289 288 288 288 288
254 256 257 258 259 260 261 262 262 263 265 266 267 268 269 270 271 272 273 273 274 275 275 276 276 276 277 277 278 279 280 281 283 284 286 287 287 287 286 286 286 286
Height
10634 10635 10635 10636 10637 10638 10638 10639 10639 10640 10640 10641 10641 10641 10642 10643 10645 10647 10647 10647 10647 10647 10648 10649 10650 10651 10652 10652 10652 10652 10651 10650 10649 10648 10647 10646 10646 10646 10647 10647 10646 10645
10629 10630 10630 10631 10631 10631 10632 10632 10633 10634 10635 10636 10636 10636 10636 10637 10640 10642 10643 10643 10642 10642 10643 10644 10645 10646 10647 10648 10648 10647 10647 10646 10645 10644 10643 10642 10642 10642 10643 10643 10642 10641
10623 10624 10624 10624 10625 10625 10625 10626 10627 10628 10630 10631 10631 10631 10632 10633 10634 10637 10638 10638 10638 10638 10639 10640 10641 10641 10642 10643 10643 10642 10642 10641 10641 10640 10639 10639 10638 10638 10638 10638 10638 10637
10617 10617 10617 10618 10619 10620 10620 10621 10622 10624 10625 10626 10626 10626 10627 10628 10629 10631 10632 10633 10634 10634 10635 10636 10636 10635 10636 10637 10638 10637 10637 10637 10636 10636 10636 10635 10634 10634 10634 10634 10634 10633
10610 10610 10611 10613 10615 10615 10615 10616 10617 10618 10619 10620 10621 10621 10622 10622 10624 10625 10626 10627 10628 10629 10629 10630 10630 10630 10631 10632 10632 10632 10632 10632 10633 10632 10632 10631 10630 10629 10629 10629 10629 10629
10604 10606 10608 10610 10610 10611 10611 10611 10612 10613 10614 10615 10616 10617 10617 10618 10619 10621 10622 10623 10623 10624 10625 10626 10626 10626 10627 10627 10628 10628 10628 10628 10628 10628 10627 10626 10625 10624 10624 10624 10625 10624
10601 10603 10604 10605 10605 10606 10605 10605 10606 10607 10608 10609 10610 10611 10612 10613 10615 10616 10618 10619 10619 10620 10621 10621 10622 10623 10623 10624 10624 10623 10623 10623 10623 10623 10622 10621 10620 10619 10619 10619 10619 10619
10597 10598 10599 10599 10600 10601 10600 10600 10601 10603 10603 10603 10603 10605 10606 10607 10609 10611 10613 10614 10614 10615 10615 10616 10617 10618 10619 10619 10620 10619 10619 10618 10618 10617 10617 10616 10615 10614 10614 10614 10614 10614
10593 10593 10595 10595 10596 10596 10595 10595 10596 10597 10597 10596 10597 10598 10599 10601 10603 10605 10607 10608 10609 10609 10610 10610 10611 10612 10613 10614 10614 10614 10613 10613 10613 10612 10611 10610 10610 10609 10609 10609 10609 10609
10588 10590 10592 10592 10592 10591 10591 10590 10590 10591 10591 10591 10591 10592 10593 10595 10596 10598 10600 10601 10602 10603 10604 10604 10604 10605 10605 10606 10607 10607 10607 10607 10606 10606 10605 10605 10604 10604 10604 10604 10603 10603
10585 10587 10588 10588 10587 10587 10587 10586 10586 10586 10587 10587 10587 10587 10588 10589 10591 10592 10593 10594 10595 10596 10597 10598 10598 10598 10598 10598 10598 10599 10599 10599 10599 10599 10598 10598 10597 10597 10597 10597 10597 10597
10581 10583 10583 10582 10582 10582 10582 10583 10583 10583 10583 10583 10583 10583 10583 10585 10586 10586 10587 10587 10588 10589 10590 10591 10591 10591 10591 10591 10591 10591 10591 10591 10591 10591 10591 10590 10590 10589 10589 10589 10589 10589
10578 10578 10578 10576 10576 10577 10577 10577 10578 10578 10579 10579 10579 10579 10579 10579 10580 10581 10581 10581 10582 10583 10584 10584 10584 10584 10584 10584 10584 10584 10584 10584 10584 10584 10583 10583 10582 10582 10581 10581 10581 10581
10574 10574 10573 10572 10572 10572 10571 10572 10572 10572 10573 10574 10575 10575 10575 10575 10575 10576 10575 10575 10576 10577 10578 10578 10578 10578 10578 10577 10576 10576 10576 10576 10576 10576 10576 10576 10576 10575 10574 10574 10574 10574
10569 10569 10569 10569 10568 10566 10566 10567 10568 10568 10568 10568 10568 10569 10570 10570 10571 10571 10570 10570 10570 10571 10571 10571 10571 10571 10571 10570 10570 10569 10569 10569 10569 10569 10569 10570 10569 10569 10568 10568 10567 10567
10564 10564 10563 10563 10562 10561 10562 10563 10564 10564 10564 10562 10562 10562 10564 10565 10565 10565 10565 10565 10565 10564 10564 10564 10564 10563 10563 10563 10563 10563 10563 10563 10563 10563 10563 10563 10563 10563 10562 10561 10560 10559
10558 10558 10558 10558 10557 10556 10558 10559 10560 10560 10559 10558 10557 10556 10557 10559 10559 10559 10559 10559 10559 10558 10557 10557 10557 10557 10557 10557 10557 10558 10558 10558 10558 10557 10557 10557 10556 10556 10556 10555 10553 10552
10551 10551 10552 10552 10552 10552 10553 10553 10553 10553 10553 10553 10552 10551 10551 10552 10553 10554 10553 10553 10553 10552 10552 10552 10552 10552 10552 10552 10552 10553 10553 10553 10553 10552 10550 10549 10549 10548 10548 10547 10546 10545
10546 10544 10544 10545 10546 10548 10548 10547 10547 10547 10546 10547 10546 10546 10546 10546 10546 10547 10547 10546 10546 10546 10547 10547 10548 10548 10548 10548 10549 10548 10548 10547 10546 10545 10543 10541 10540 10539 10539 10538 10538 10537
10541 10540 10539 10539 10540 10541 10541 10541 10541 10541 10541 10540 10540 10540 10541 10541 10541 10541 10540 10540 10540 10540 10540 10542 10543 10543 10543 10543 10543 10542 10541 10540 10539 10538 10536 10534 10533 10531 10530 10529 10529 10528
10535 10534 10534 10534 10534 10534 10534 10535 10535 10535 10535 10534 10534 10534 10535 10535 10535 10535 10535 10534 10533 10533 10534 10535 10536 10536 10535 10535 10535 10534 10533 10532 10531 10530 10529 10528 10526 10525 10524 10523 10522 10521
10528 10528 10528 10529 10528 10528 10528 10528 10529 10529 10528 10528 10528 10528 10529 10528 10528 10528 10527 10527 10526 10525 10526 10527 10527 10527 10527 10527 10526 10526 10525 10524 10523 10522 10521 10519 10518 10516 10516 10515 10514 10513
10520 10520 10520 10521 10522 10522 10521 10521 10521 10521 10521 10521 10521 10521 10521 10521 10521 10520 10520 10519 10518 10517 10516 10517 10518 10518 10518 10518 10517 10517 10516 10515 10514 10513 10512 10510 10508 10506 10506 10505 10504 10503
10511 10512 10513 10514 10514 10514 10514 10513 10513 10513 10513 10513 10513 10513 10513 10513 10513 10513 10512 10511 10510 10509 10507 10508 10508 10509 10508 10508 10508 10508 10507 10506 10505 10504 10503 10501 10499 10497 10496 10495 10494 10492
10503 10505 10506 10506 10506 10505 10505 10504 10504 10504 10505 10505 10505 10505 10505 10504 10504 10504 10504 10503 10502 10501 10499 10498 10498 10499 10499 10499 10498 10498 10497 10496 10495 10494 10493 10491 10490 10488 10487 10486 10484 10482
10495 10497 10498 10497 10497 10496 10495 10495 10495 10496 10497 10497 10497 10497 10497 10496 10495 10495 10494 10493 10493 10492 10491 10490 10489 10488 10489 10489 10489 10487 10486 10485 10484 10483 10482 10481 10480 10479 10478 10477 10475 10473